TimeCST,TemperatureF,Dew PointF,Humidity,Sea Level PressureIn,VisibilityMPH,Wind Direction,Wind SpeedMPH,Gust SpeedMPH,PrecipitationIn,Events,Conditions,WindDirDegrees,DateUTC
12:53 AM,34.0,28.0,79,30.17,10.0,SSW,5.8,-,N/A,,Clear,200,2012-11-15 06:53:00
1:53 AM,28.9,25.0,85,30.16,10.0,SSW,4.6,-,N/A,,Clear,200,2012-11-15 07:53:00
2:53 AM,34.0,28.9,82,30.16,10.0,SSW,5.8,-,N/A,,Clear,200,2012-11-15 08:53:00
3:53 AM,35.1,28.9,78,30.14,10.0,SSW,9.2,-,N/A,,Partly Cloudy,210,2012-11-15 09:53:00
4:53 AM,37.9,30.0,73,30.14,10.0,SSW,8.1,-,N/A,,Overcast,200,2012-11-15 10:53:00
5:53 AM,35.1,28.9,78,30.14,10.0,SSW,5.8,-,N/A,,Partly Cloudy,210,2012-11-15 11:53:00
6:53 AM,35.1,28.9,78,30.16,10.0,SW,5.8,-,N/A,,Overcast,220,2012-11-15 12:53:00
7:53 AM,39.9,30.0,68,30.17,10.0,SW,10.4,-,N/A,,Overcast,230,2012-11-15 13:53:00
8:53 AM,44.1,30.9,60,30.17,10.0,SW,12.7,17.3,N/A,,Overcast,220,2012-11-15 14:53:00
9:53 AM,46.9,30.9,54,30.19,10.0,WSW,11.5,19.6,N/A,,Partly Cloudy,240,2012-11-15 15:53:00
10:53 AM,50.0,32.0,50,30.20,10.0,West,9.2,-,N/A,,Clear,260,2012-11-15 16:53:00
11:53 AM,51.1,32.0,48,30.19,10.0,WSW,12.7,-,N/A,,Clear,250,2012-11-15 17:53:00
12:53 PM,52.0,30.0,43,30.22,10.0,WNW,10.4,-,N/A,,Clear,290,2012-11-15 18:53:00
1:53 PM,50.0,27.0,41,30.23,10.0,West,9.2,16.1,N/A,,Clear,280,2012-11-15 19:53:00
2:53 PM,46.9,23.0,39,30.27,10.0,NNW,13.8,-,N/A,,Clear,330,2012-11-15 20:53:00
3:53 PM,43.0,16.0,34,30.32,10.0,NW,10.4,-,N/A,,Clear,310,2012-11-15 21:53:00
4:53 PM,37.0,12.0,36,30.35,10.0,WNW,4.6,-,N/A,,Clear,300,2012-11-15 22:53:00
5:53 PM,33.1,12.9,43,30.38,10.0,WNW,6.9,-,N/A,,Clear,300,2012-11-15 23:53:00
6:53 PM,32.0,12.0,44,30.41,10.0,NW,5.8,-,N/A,,Clear,320,2012-11-16 00:53:00
7:53 PM,28.9,12.0,49,30.43,10.0,NNW,4.6,-,N/A,,Clear,330,2012-11-16 01:53:00
8:53 PM,28.9,14.0,54,30.44,10.0,NW,5.8,-,N/A,,Clear,320,2012-11-16 02:53:00
9:53 PM,26.1,14.0,60,30.46,10.0,Calm,Calm,-,N/A,,Clear,0,2012-11-16 03:53:00
10:53 PM,21.9,14.0,72,30.48,10.0,NNW,3.5,-,N/A,,Clear,330,2012-11-16 04:53:00
11:53 PM,21.9,14.0,72,30.50,10.0,WNW,3.5,-,N/A,,Clear,300,2012-11-16 05:53:00